Location: Mauna Kea VIS
(19.7591°N, 155.4561°W)
Time: 15:57:55
(UTC-10:00)

Hubble Space Telescope - Pass Details

Date: 15 December 2025
Orbit: 479 x 481 km, 28.5° (Epoch: 16 January)

Event Time Altitude Azimuth Distance (km) Brightness Sun altitude
Rises 18:57:00 0° 298° (WNW) 2,523 4.9 -16.4°
Reaches altitude 10° 18:59:22 10° 309° (NW) 1,644 3.7 -16.9°
Maximum altitude 19:02:47 31° 13° (NNE) 850 1.5 -17.7°
Enters shadow 19:02:59 31° 20° (NNE) 854 1.4 -17.7°
